{"data":{"norad_id":27424,"intl_designator":"2002-022A","name":"AQUA","alt_names":[],"object_type":"PAYLOAD","status":"ACTIVE","operator":null,"country":"US","launch_date":"2002-05-04","launch_site_code":"AFWTR","launch_vehicle":null,"mission":null,"orbit_class":"UNKNOWN","rcs_meters":7.8419,"size_class":null,"mass_kg":null,"dimensions":null,"purposes":["earth_obs"],"wikipedia_slug":null,"has_3d_model":false,"image_url":null,"decayed_at":null,"tle_current":{"epoch":"2026-09-19T21:42:01.395648Z","epoch_age_seconds":65964,"freshness":"FRESH","line1":"1 27424U 02022A   26262.90418282  .00000475  00000+0  10409-3 0  9999","line2":"2 27424  98.4400 234.1350 0001477  65.3550  13.9585 14.62206642297111","mean_motion":14.62206642,"eccentricity":0.0001477,"inclination_deg":98.44,"raan_deg":234.135,"arg_perigee_deg":65.355,"mean_anomaly_deg":13.9585,"bstar":0.00010409,"rev_number":29711,"period_min":98.481292495729,"perigee_km":685.01452249296,"apogee_km":687.10128566762,"semimajor_km":7064.1949040803,"source":"CELESTRAK","updated_at":"2026-09-20T09:00:33.884503Z"}}}